Point Lay, AK

5:17 AM AKDT on April 25, 2017 (GMT -0800)
Point Lay

Weather History for PPIZ - October, 2013

Change the Weather History Date:

Monday, October 14, 2013

  Actual Average Record
Temperature  
Mean Temperature 27 °F -  
Max Temperature 29 °F 20 °F 37 °F (2011)
Min Temperature 25 °F 13 °F -8 °F (2008)
Degree Days  
Heating Degree Days 38    
Moisture  
Dew Point 27 °F    
Average Humidity 95    
Maximum Humidity 100    
Minimum Humidity 85    
Precipitation  
Precipitation 0.00 in - - ()
Sea Level Pressure  
Sea Level Pressure 29.52 in    
Wind  
Wind Speed 12 mph (NNE)    
Max Wind Speed 20 mph    
Max Gust Speed -    
Visibility 6 miles    
Events Snow    
Averages and records for this station are not official NWS values.
T = Trace of Precipitation, MM = Missing Value Source: NWS Daily Summary

Daily Weather History Graph

Daily Weather History Graph

Search for Another Location

Airport or City:

Trip Planner

Search our weather history database for the weather conditions in past years. The results will help you decide how hot, cold, wet, or windy it might be!

Date:

Astronomy

Oct. 14, 2013 Rise Set
Actual Time 10:01 AM AKDT 7:12 PM AKDT
Civil Twilight 8:59 AM AKDT 8:14 PM AKDT
Nautical Twilight 7:49 AM AKDT 9:23 PM AKDT
Astronomical Twilight 6:36 AM AKDT 10:35 PM AKDT
Moon 6:37 PM AKDT (10/14) 3:19 AM AKDT (10/14)
Length of Visible Light 11h 14m
Length of Day
9h 10m
Waxing Gibbous, 80% of the Moon is Illuminated
Oct 14
Waxing Gibbous
Oct 18
Full
Oct 26
Last Quarter
Nov 3
New
Nov 9
First Quarter

Hourly Weather History & Observations

Time (AKDT) Temp. Windchill Dew Point Humidity Pressure Visibility Wind Dir Wind Speed Gust Speed Precip Events Conditions
12:18 AM 28.4 °F 15.8 °F 28.4 °F 100% 29.47 in 2.5 mi NNE 18.4 mph - 0.00 in Snow Light Snow
12:30 AM 28.4 °F 15.4 °F 28.4 °F 100% 29.47 in 1.8 mi NE 19.6 mph - 0.00 in Snow Light Snow
12:35 AM 28.4 °F 15.8 °F 28.4 °F 100% 29.47 in 1.8 mi NE 18.4 mph - 0.00 in Snow Light Snow
12:56 AM 28.4 °F 16.6 °F 28.4 °F 100% 29.47 in 2.0 mi NE 16.1 mph - N/A Snow Light Snow
1:03 AM 28.4 °F 16.6 °F 28.4 °F 100% 29.47 in 2.0 mi NE 16.1 mph - 0.00 in Snow Light Snow
1:35 AM 28.4 °F 17.0 °F 28.4 °F 100% 29.47 in 3.0 mi NE 15.0 mph - 0.00 in Snow Light Snow
1:56 AM 29.1 °F 18.4 °F 28.0 °F 96% 29.48 in 3.0 mi NE 13.8 mph - 0.00 in Snow Light Snow
2:04 AM 28.4 °F 17.5 °F 28.4 °F 100% 29.47 in 2.5 mi NE 13.8 mph - 0.00 in Snow Light Snow
2:11 AM 28.4 °F 17.5 °F 28.4 °F 100% 29.47 in 2.5 mi NE 13.8 mph - 0.00 in Snow Light Snow
2:23 AM 28.4 °F 17.0 °F 28.4 °F 100% 29.47 in 2.5 mi NE 15.0 mph - 0.00 in Snow Light Snow
2:56 AM - - - N/A% 29.47 in 2.5 mi NE 12.7 mph - 0.00 in   Unknown
3:38 AM 28.4 °F 16.6 °F 28.4 °F 100% 29.46 in 2.0 mi NE 16.1 mph - 0.00 in Snow Light Snow
3:56 AM 28.4 °F 17.5 °F 26.6 °F 93% 29.47 in 4.0 mi NE 13.8 mph - N/A Snow Light Snow
4:38 AM 28.4 °F 17.5 °F 26.6 °F 93% 29.46 in 8.0 mi NE 13.8 mph - 0.00 in   Overcast
4:56 AM 29.1 °F 18.4 °F 27.1 °F 92% 29.48 in 3.0 mi NE 13.8 mph - 0.00 in Snow Light Snow
5:08 AM 28.4 °F 17.5 °F 26.6 °F 93% 29.47 in 4.0 mi NE 13.8 mph - 0.00 in Snow Light Snow
5:34 AM 28.4 °F 18.5 °F 26.6 °F 93% 29.46 in 5.0 mi NE 11.5 mph - 0.00 in Snow Light Snow
5:43 AM 28.4 °F 19.1 °F 26.6 °F 93% 29.46 in 6.0 mi NE 10.4 mph - 0.00 in   Mostly Cloudy
5:56 AM 28.0 °F 18.6 °F 27.1 °F 96% 29.48 in 6.0 mi NE 10.4 mph - 0.00 in   Partly Cloudy
6:56 AM 28.0 °F 19.3 °F 27.1 °F 96% 29.48 in 9.0 mi North 9.2 mph - N/A   Clear
7:06 AM 28.4 °F 19.7 °F 26.6 °F 93% 29.47 in 8.0 mi North 9.2 mph - 0.00 in   Scattered Clouds
7:16 AM 28.4 °F 19.7 °F 26.6 °F 93% 29.47 in 5.0 mi North 9.2 mph - 0.00 in   Mostly Cloudy
7:24 AM 28.4 °F 20.4 °F 26.6 °F 93% 29.48 in 4.0 mi North 8.1 mph - 0.00 in   Mostly Cloudy
7:56 AM 29.1 °F 22.1 °F 28.0 °F 96% 29.49 in 3.0 mi North 6.9 mph - 0.00 in   Overcast
8:14 AM 28.4 °F 20.4 °F 28.4 °F 100% 29.48 in 3.0 mi North 8.1 mph - 0.00 in   Overcast
8:33 AM 28.4 °F 20.4 °F 28.4 °F 100% 29.47 in 3.0 mi North 8.1 mph - 0.00 in   Overcast
8:40 AM 28.4 °F 21.2 °F 28.4 °F 100% 29.47 in 2.5 mi North 6.9 mph - 0.00 in   Overcast
8:56 AM 29.1 °F 20.6 °F 28.0 °F 96% 29.49 in 3.0 mi North 9.2 mph - 0.00 in   Overcast
9:49 AM 28.4 °F 17.5 °F 28.4 °F 100% 29.48 in 8.0 mi North 13.8 mph - 0.00 in   Mostly Cloudy
9:56 AM 28.4 °F 18.0 °F 28.4 °F 100% 29.49 in 8.0 mi North 12.7 mph - N/A   Scattered Clouds
10:56 AM 28.0 °F 18.6 °F 27.1 °F 96% 29.51 in 9.0 mi NNE 10.4 mph - 0.00 in   Clear
11:56 AM 25.2 °F - 24.1 °F 96% 29.52 in 8.0 mi Calm Calm - N/A   Clear
12:56 PM 27.1 °F 18.9 °F 26.1 °F 96% 29.54 in 7.0 mi North 8.1 mph - N/A   Clear
1:56 PM 27.1 °F - 26.1 °F 96% 29.55 in 8.0 mi North - - N/A   Scattered Clouds
2:42 PM 28.4 °F 23.3 °F 26.6 °F 93% 29.55 in 3.0 mi North 4.6 mph - 0.00 in   Scattered Clouds
2:56 PM 28.0 °F 22.8 °F 26.1 °F 92% 29.55 in 8.0 mi North 4.6 mph - 0.00 in   Mostly Cloudy
3:56 PM 28.4 °F 22.2 °F 26.6 °F 93% 29.57 in 9.0 mi North 5.8 mph - N/A   Overcast
4:56 PM 29.1 °F 22.1 °F 25.2 °F 85% 29.58 in 10.0 mi North 6.9 mph - 0.00 in   Mostly Cloudy
5:56 PM 29.1 °F 21.3 °F 25.2 °F 85% 29.58 in 10.0 mi NNE 8.1 mph - 0.00 in   Overcast
6:56 PM 28.4 °F 24.6 °F 24.8 °F 86% 29.59 in 10.0 mi ESE 3.5 mph - N/A   Mostly Cloudy
7:18 PM 28.4 °F 24.6 °F 24.8 °F 86% 29.60 in 3.0 mi SSE 3.5 mph - 0.00 in Snow Light Snow
7:37 PM 26.6 °F - 24.8 °F 93% 29.60 in 5.0 mi Calm Calm - 0.00 in Snow Light Snow
7:46 PM 26.6 °F 22.6 °F 24.8 °F 93% 29.60 in 3.0 mi SSE 3.5 mph - 0.00 in Snow Light Snow
7:56 PM 27.1 °F - 26.1 °F 96% 29.62 in 9.0 mi Calm Calm - 0.00 in Snow Light Snow
8:56 PM 27.1 °F 23.2 °F 26.1 °F 96% 29.63 in 10.0 mi South 3.5 mph - 0.00 in   Overcast
9:56 PM 27.1 °F - 25.2 °F 92% 29.64 in 10.0 mi Calm Calm - N/A   Overcast
10:56 PM 27.1 °F 23.2 °F 25.2 °F 92% 29.64 in 10.0 mi SE 3.5 mph - N/A   Overcast
11:41 PM 26.6 °F 21.2 °F 24.8 °F 93% 29.64 in 10.0 mi SSE 4.6 mph - N/A   Overcast
11:56 PM 27.1 °F - 25.2 °F 92% 29.65 in 10.0 mi Calm Calm - N/A   Overcast